Dewpoint
2 1 -1 -3 -4 -6 -7 -6 -3 -2 1 -2 -8 -8 -13 -20 -23 -26 -30 -31 -32 -32 -31 -26 -21 -13 -11 -2 -11 -10 -10 -1 -2 -3 -5 -12 -6 -6 -8 -8 -7 -7 -6 -6 -8 -6 1
1 2 2 2 2 1 -1 -3 -4 -5 -3 -2 -0 -6 -7 -18 -12 -20 -27 -30 -30 -31 -30 -24 -15 -11 -2 4 -18 -9 -2 -2 -4 -5 -4 -9 -11 -6 -7 -6 -3 -4 -3 -4 -6 -7 2
-3 -2 0 -1 0 2 2 2 1 1 -1 -3 -3 0 -3 -11 -6 -15 -20 -26 -28 -28 -29 -23 -11 -5 4 -17 -24 -4 -1 -1 -2 -0 -3 -6 -11 -4 -7 -4 -4 -4 -4 -5 -6 -7 1
1 -4 -3 -1 -3 -4 -6 -2 0 1 1 -1 -2 -3 1 -0 -2 -13 -19 -19 -26 -28 -27 -22 -10 -1 2 -30 -29 -27 -23 -3 -3 -2 -0 -7 -6 -4 -5 -5 -4 -3 -4 -3 -6 -8 -1
2 1 -1 -5 1 -2 -4 -4 -7 -2 1 1 -1 -3 -4 -1 1 -2 -9 -22 -22 -27 -28 -15 -2 1 0 -9 -8 -10 -18 -9 -5 -2 -3 -4 -4 -4 -4 -3 -2 -2 -1 -2 -3 -6 -2
1 1 0 -0 -0 1 -1 -0 0 -1 -3 1 1 1 -1 -3 -0 -2 -10 -22 -25 -28 -27 -6 6 4 -7 -17 -6 -2 -3 -10 -3 -3 -2 -2 -5 -4 -3 -2 1 -1 -1 -2 -2 -5 3
1 1 0 -0 -2 -2 -0 -0 1 0 -0 -2 -4 1 0 -2 -2 -1 -5 -11 -10 4 6 4 5 -2 -9 -8 -5 -3 -3 -6 -4 -3 -2 -5 -3 -2 -2 -3 -3 -3 -2 -1 -3 -2 2
0 1 1 -1 -1 -1 -1 -0 0 1 1 1 -0 -4 1 -0 -5 -2 -2 -3 -1 2 1 -4 1 4 -0 1 3 -7 -2 -2 -3 -1 -3 -3 -2 -4 -3 -3 -2 -2 -1 -1 -4 -2 -2
-0 0 -1 -1 -1 -1 -0 -0 -0 0 0 1 1 0 -3 -4 -8 -5 0 -2 3 5 3 -0 -4 -2 -5 -6 2 -4 -3 -3 -3 -0 -2 -2 -2 -4 -3 -2 -2 -2 -2 -1 -2 -4 -2
-1 -0 -0 -1 -1 -1 -0 -0 -0 0 1 0 0 1 0 -1 -12 -3 2 4 3 5 4 -1 -3 -7 -4 -3 1 -14 -11 -4 -4 -1 -0 -2 -4 -3 -1 -2 -2 -0 -2 -2 -2 -2 1
-1 -0 -2 -1 -1 -1 -0 -0 -1 0 1 -0 -0 -1 1 -0 -7 0 3 3 4 3 -16 -16 -6 -11 -5 -5 -7 -5 -21 -3 -4 -1 -0 1 -1 -1 -1 -1 -2 -1 -1 -1 -1 -1 -2
-1 -2 -2 -2 -1 -1 -1 -1 0 1 1 -0 -1 -1 -0 -0 -4 -9 -4 1 5 5 2 -4 -7 -5 -4 -6 -7 -4 -3 -4 -3 -2 -1 -1 -3 -3 -2 -2 -2 -2 -2 -1 0 0 4
-2 -3 -2 -2 -1 -2 -1 -1 0 1 1 0 -0 -1 -0 -1 -2 -3 1 3 5 5 -9 -14 -1 -4 -6 -5 -7 -7 -5 -1 0 0 -1 -2 -1 -3 -3 -2 -2 -2 -1 3 4 4 5
-3 -4 -3 -3 -2 -1 -2 -1 0 1 1 1 1 0 -0 -1 -2 -2 2 5 4 -2 -8 -10 -9 -11 0 -4 -6 -6 -4 -4 -2 -2 -1 -0 3 -2 -3 -2 -1 -1 0 5 6 7 5
-4 -4 -4 -3 -2 -1 -0 0 0 1 1 1 1 2 1 -2 -2 -2 2 4 1 -2 -6 -7 -10 -10 -10 -3 -1 -5 -3 -3 -4 -3 1 2 1 -3 -3 -3 -3 0 1 -0 3 5 7
-6 -6 -4 -2 -2 -1 0 0 0 1 1 1 2 2 1 -2 -1 -1 2 3 1 -3 -4 -3 -4 -7 -5 -6 -1 2 2 -1 -2 -3 -3 -1 2 -2 -3 -4 -3 -2 -0 3 4 6 7
-5 -5 -3 -2 -1 -1 0 0 0 1 1 1 2 2 1 0 -0 1 2 1 -1 -3 -2 -2 -3 -4 -4 -4 -3 -0 3 0 -0 -1 -3 -2 -1 -0 -1 -1 -1 -0 1 2 3 5 6
-5 -4 -3 -2 -2 -2 -1 0 1 1 1 2 2 2 1 1 1 0 1 -1 -2 -2 -3 -2 -2 -2 -2 -3 -2 -2 -1 -1 1 4 2 -1 -0 1 -1 -3 -3 -3 -0 1 5 6 6
-4 -3 -3 -2 -2 -2 -1 0 1 1 1 2 2 1 1 1 1 1 -2 -2 -1 -1 -2 -2 -1 -2 -4 -4 -2 -1 0 -0 4 4 6 5 1 3 2 -2 -3 -2 -1 -1 1 4 4
-3 -3 -3 -2 -2 -2 -0 0 0 1 1 1 1 1 1 1 -0 -1 -1 -1 -0 -2 -2 -2 -1 -2 -2 -1 -3 -1 -0 1 3 4 5 5 5 3 2 1 -0 0 -0 -1 0 5 4
-3 -3 -2 -2 -1 -1 -0 0 0 1 1 2 0 0 1 2 1 0 -1 -2 -1 -0 -1 -2 -1 -1 -1 0 -1 -2 -1 5 4 5 5 6 8 3 1 -2 -2 0 0 0 -0 1 3
-3 -2 -1 -1 -1 -0 -0 -0 0 0 1 2 -0 1 1 -0 0 1 -0 -0 -1 -1 -1 -0 -1 -3 -4 -1 -1 -1 -2 -2 5 5 6 5 7 6 3 0 -2 -1 -0 0 -0 -0 1
-2 -1 -1 -1 -0 -0 -0 -0 0 0 1 2 1 1 1 0 1 2 1 -1 -1 -2 -2 -2 -2 -2 -2 -3 -5 -5 1 5 6 4 5 5 7 7 7 0 0 3 1 -0 1 1 1
-1 -1 -1 -1 -0 -0 -0 0 0 1 1 1 1 1 1 2 1 1 -1 -1 -1 -1 -1 -3 -4 -2 -3 -4 -1 4 4 4 5 5 4 5 5 6 7 3 7 1 -1 -1 -0 -0 -1
-0 -1 -2 -2 -2 -2 -1 -0 0 0 0 0 0 1 1 2 1 -1 -1 -1 -1 -2 -2 -1 -1 -2 -4 -3 0 -0 2 1 3 4 6 5 6 6 7 7 3 3 1 1 1 -0 -2
-3 -3 -3 -3 -3 -2 -2 -3 -3 -1 0 -0 -0 -0 0 1 2 -1 -1 -2 -1 -0 -1 -1 -2 -2 -2 -2 -1 -0 -0 2 4 6 5 4 4 5 6 7 8 2 0 -1 -2 2 -3
-3 -2 -3 -2 -1 -1 -2 -1 -3 -3 -2 -0 0 -0 -0 -1 1 1 -1 -1 -2 -1 -1 -2 -2 -2 -3 -0 1 2 1 -1 2 3 5 4 3 5 6 7 6 3 3 -2 3 1 -2
-0 0 -0 -0 -0 -0 -0 -0 -0 -1 -2 -2 -1 -0 -0 -0 -0 2 -0 -1 -1 -2 -0 -2 -1 -0 2 2 2 1 1 3 3 2 3 3 4 5 6 7 7 4 4 4 3 3 4
0 -1 -1 -1 -2 -1 -1 -1 -1 0 0 -1 -0 -1 0 -0 -0 0 1 1 -1 -2 -2 -2 -1 -1 0 2 1 0 0 -0 1 2 -1 4 3 4 4 4 2 4 3 3 3 2 2
Wind_Speed
14 13 13 12 13 15 16 17 21 20 18 19 22 24 26 22 22 22 21 19 19 19 19 20 19 19 20 8 25 18 22 10 11 12 11 11 11 10 5 4 7 6 8 17 18 5 7
14 14 14 14 14 13 12 14 16 18 20 22 20 21 26 26 23 23 22 22 21 19 19 18 18 18 15 10 16 10 10 11 11 14 14 13 16 10 11 9 2 8 15 19 18 16 14
16 16 17 17 16 15 15 15 15 16 17 17 18 21 22 26 26 25 23 22 22 21 19 17 16 16 17 31 14 10 14 16 12 11 17 15 16 16 8 6 7 13 7 11 12 8 6
18 18 17 17 17 17 17 18 17 17 18 17 17 17 21 24 25 27 25 23 22 19 20 17 15 14 16 16 17 26 30 26 16 13 14 12 13 17 16 11 9 5 5 3 7 4 6
19 20 19 17 18 18 17 19 20 19 18 19 18 16 18 23 23 25 26 25 22 18 21 16 13 11 18 11 13 9 24 31 21 15 13 13 15 18 10 3 5 2 5 5 10 9 7
19 22 21 18 18 20 20 19 21 21 20 19 18 18 19 21 21 23 26 24 18 19 17 14 7 8 19 18 7 11 9 21 18 14 17 16 9 4 2 4 6 5 4 4 9 8 5
22 23 23 21 22 22 21 20 20 21 19 20 21 18 18 18 17 20 24 17 7 4 3 12 10 13 22 14 15 10 8 17 20 14 9 5 4 13 10 9 7 4 6 10 13 5 4
23 25 24 22 22 22 21 21 22 22 22 21 20 20 18 17 17 16 17 14 2 10 15 24 25 36 41 33 17 22 7 17 14 12 7 4 16 14 8 8 9 8 11 15 8 7 4
25 26 23 22 22 22 21 22 22 21 22 23 21 18 18 20 19 13 13 12 10 20 7 15 31 28 41 27 28 33 14 23 8 8 12 14 5 15 12 12 13 13 11 15 9 4 4
26 24 25 23 23 23 24 23 23 23 21 19 19 17 15 15 14 9 7 4 16 11 4 8 8 15 24 18 11 41 30 14 6 16 11 9 18 13 8 15 11 11 10 6 7 4 4
25 26 24 24 24 25 26 25 24 23 20 20 17 16 14 12 10 11 4 12 9 7 5 6 6 5 11 22 10 16 38 21 14 14 10 9 8 12 17 18 13 12 14 6 5 3 2
27 26 27 28 27 27 26 25 23 22 18 18 16 14 14 15 20 15 14 10 1 1 9 6 6 8 9 14 4 3 22 20 10 7 9 10 17 5 12 14 14 14 4 1 4 2 3
28 28 29 29 29 28 28 26 24 21 18 17 18 16 15 17 20 7 8 4 3 7 4 5 4 7 5 7 6 1 14 14 9 9 16 15 20 14 11 11 9 6 5 2 3 2 7
30 29 31 31 32 31 30 27 23 22 19 18 18 17 17 20 13 8 6 3 12 5 10 4 5 10 3 4 5 3 3 11 15 4 6 12 7 18 11 16 7 8 9 6 6 4 5
32 31 32 32 33 31 28 25 26 22 20 17 17 19 21 19 13 10 6 9 7 5 5 6 15 7 3 3 5 7 9 7 9 16 6 7 9 7 14 11 7 7 5 9 5 2 2
31 32 33 34 33 32 29 27 26 24 22 18 21 22 27 18 16 14 6 17 8 6 7 9 2 4 4 6 6 5 4 2 8 9 10 4 5 8 18 9 12 13 6 3 1 5 8
34 34 35 36 34 34 31 29 28 26 25 22 25 12 19 25 21 13 12 12 10 18 12 3 4 4 4 5 4 2 2 12 2 4 18 8 10 12 4 9 11 2 3 2 5 5 6
35 37 38 37 37 36 35 32 30 28 25 25 23 5 11 31 13 11 19 12 6 11 13 12 6 6 7 4 4 4 4 4 10 5 4 12 6 12 24 14 5 20 11 10 5 5 3
40 41 40 39 37 34 36 35 33 32 30 29 12 10 27 40 11 17 14 14 21 11 2 4 7 11 5 3 4 6 3 9 4 4 7 8 6 8 6 14 16 11 8 12 6 4 11
45 42 41 38 38 37 35 35 37 35 33 32 13 5 11 35 25 13 20 19 18 16 24 27 11 8 6 8 6 7 3 6 11 3 11 4 7 15 18 6 5 5 8 15 12 5 5
44 44 42 42 41 38 37 37 38 37 38 36 18 8 12 10 19 16 12 9 23 19 17 9 8 21 6 5 2 11 6 3 3 8 5 5 7 12 18 16 17 6 9 10 14 9 10
43 42 41 40 39 38 38 40 39 40 38 43 13 9 10 1 23 22 21 25 23 15 12 14 17 10 15 18 8 13 10 10 5 2 3 7 5 14 19 19 17 19 17 19 17 6 6
41 39 38 38 38 37 37 38 40 42 45 36 36 19 13 14 12 16 31 22 16 16 16 22 14 13 16 7 18 20 14 9 0 2 2 4 6 9 6 6 13 8 25 22 8 6 5
35 34 35 36 36 37 37 38 39 39 45 38 25 17 14 8 17 25 14 21 20 18 19 16 20 11 14 14 11 3 3 4 5 5 6 6 4 1 7 8 13 18 5 10 11 13 13
32 30 29 29 29 30 30 32 36 39 42 48 32 20 12 10 16 19 24 15 22 28 23 20 25 25 25 21 2 4 3 5 5 6 9 5 6 3 3 5 8 13 8 15 15 20 14
27 29 29 29 29 31 33 34 36 37 41 46 38 41 8 3 15 28 15 20 13 15 14 25 30 26 19 1 3 7 5 3 3 5 6 7 7 5 3 6 8 2 11 7 3 6 5
28 30 31 32 33 34 35 36 38 39 40 44 33 41 28 4 10 21 13 19 21 14 5 5 9 17 21 3 2 5 8 6 8 7 5 1 1 3 3 4 8 5 8 8 8 5 5
28 30 29 30 32 33 36 41 43 44 42 44 41 30 36 14 17 7 25 13 21 25 9 5 5 5 4 7 4 5 4 7 2 5 8 7 6 4 2 2 8 4 9 3 2 7 14
25 23 24 25 29 30 34 37 39 40 46 45 35 40 29 14 7 13 24 22 21 32 27 18 8 6 11 4 4 3 2 0 6 7 3 2 6 6 7 8 18 7 3 6 5 10 13
Wind_Direction
308 309 309 306 303 294 292 290 284 286 291 293 298 301 297 291 288 289 290 292 297 301 307 310 305 303 305 275 255 264 280 268 256 244 243 233 234 244 232 226 306 194 273 316 284 343 154
285 292 297 303 304 308 310 303 297 299 287 280 287 296 299 293 293 287 286 291 293 295 302 307 306 300 297 268 280 251 217 221 242 258 247 232 231 237 284 278 249 314 309 296 310 300 174
289 286 288 285 286 292 296 301 304 311 306 305 288 284 295 296 297 292 288 285 288 293 297 302 300 298 279 259 264 227 222 220 230 253 260 240 240 249 267 306 294 320 310 315 296 286 145
298 290 289 292 291 289 286 289 293 297 302 311 314 306 284 293 299 296 295 289 282 289 289 295 290 290 262 295 272 238 236 236 236 239 260 239 229 269 271 262 329 342 315 317 285 347 197
295 292 289 286 292 291 290 291 288 286 295 301 307 310 313 292 292 305 299 286 289 283 279 283 285 273 268 276 261 291 233 233 229 234 237 239 263 261 261 68 352 337 249 259 299 256 187
288 288 285 287 286 287 288 288 291 293 284 289 298 309 314 316 291 301 309 293 293 277 268 268 254 281 258 253 296 308 285 225 218 223 232 247 234 192 89 109 228 211 227 306 291 293 67
285 284 283 286 287 287 291 294 295 296 296 293 281 290 299 308 307 302 318 335 313 288 240 215 211 229 266 277 281 271 268 206 214 231 195 207 177 223 204 212 236 278 281 273 286 224 133
282 281 284 285 289 292 291 288 286 285 289 289 290 283 286 297 312 299 316 307 334 345 295 269 259 254 262 268 294 264 277 200 191 213 146 214 231 223 199 229 244 242 260 279 264 277 153
282 285 286 287 284 287 289 288 286 283 278 280 282 284 285 284 297 304 298 298 330 346 265 272 249 242 249 242 234 247 240 211 199 184 201 202 222 191 206 234 242 244 244 263 242 245 274
285 285 285 284 285 286 284 282 284 279 278 279 273 272 281 298 281 274 291 308 332 317 286 273 219 242 226 212 227 232 227 207 224 205 208 219 238 254 220 233 225 250 243 245 272 170 220
284 283 284 285 283 283 283 284 273 273 268 267 269 269 265 272 244 250 228 296 326 168 291 244 211 235 182 171 178 213 212 205 206 201 175 217 179 212 229 230 232 241 264 249 238 208 180
280 280 280 281 282 282 281 278 270 267 262 261 256 259 253 252 254 257 282 289 280 195 246 277 187 154 146 207 246 86 175 198 212 208 234 223 248 200 221 232 229 249 194 303 29 78 287
279 280 281 280 281 280 278 273 269 263 256 249 243 242 241 244 251 263 273 300 181 222 293 244 205 173 173 163 235 341 180 184 186 187 216 232 246 251 256 248 255 193 98 330 326 324 247
277 279 279 281 279 278 272 268 260 258 248 240 234 232 234 245 249 258 276 235 223 242 238 1 9 10 210 120 236 192 160 204 210 216 183 209 244 228 222 215 213 202 164 167 205 201 259
278 278 279 279 274 272 266 259 252 252 242 233 227 224 228 234 223 227 244 222 222 174 267 303 315 301 292 164 331 189 196 205 209 205 194 187 234 272 220 224 197 219 165 193 168 193 111
279 278 276 274 271 267 262 256 250 246 236 224 219 221 227 210 203 203 239 235 210 227 324 11 317 359 7 12 37 61 305 210 204 203 206 256 282 237 251 256 234 202 175 104 17 189 241
278 276 275 272 267 265 259 253 244 239 230 218 214 214 226 206 191 198 225 225 236 248 299 299 270 298 351 355 24 331 285 305 279 334 220 181 235 250 294 234 223 157 198 163 144 148 202
278 277 273 270 268 260 254 249 242 233 226 218 209 207 194 187 190 215 228 212 253 286 222 248 306 280 208 317 269 251 230 264 351 333 279 222 219 228 244 257 249 232 214 186 174 220 191
277 275 271 266 263 258 251 246 241 231 223 216 210 173 176 186 207 218 228 231 246 261 311 247 217 224 211 218 274 268 257 297 81 44 38 347 241 240 257 257 255 238 220 211 176 137 207
277 273 268 264 261 255 248 244 240 230 225 215 173 166 183 197 218 216 218 227 222 217 244 256 280 303 291 269 240 264 293 311 326 55 47 29 221 255 230 244 193 209 211 218 199 181 198
274 269 265 262 257 250 246 241 237 230 219 214 188 214 187 203 210 216 201 210 221 224 219 243 249 237 253 279 235 245 282 290 315 18 40 50 279 248 255 221 233 247 265 237 218 200 195
271 267 262 257 251 246 242 238 232 225 219 213 193 184 185 108 191 204 220 222 224 208 217 212 242 254 215 234 229 291 316 302 210 304 87 22 302 326 246 235 224 222 242 260 249 211 245
270 265 259 253 249 245 241 237 231 227 219 213 214 211 197 198 180 191 215 219 220 214 238 237 241 240 253 266 265 265 278 269 57 148 92 125 334 352 290 253 228 235 209 232 251 213 180
266 262 258 254 250 245 240 236 227 214 207 205 200 181 201 204 200 216 200 208 213 218 218 237 240 232 244 247 288 201 233 228 218 237 164 154 164 336 293 291 239 256 169 223 253 253 239
265 259 255 250 245 240 235 230 223 220 214 212 211 198 199 220 217 221 213 205 202 219 230 241 239 253 266 278 249 267 282 299 210 217 207 183 139 152 271 279 278 241 250 212 226 245 235
262 260 255 250 246 240 234 230 228 223 216 212 212 213 212 234 220 214 205 200 197 209 225 241 244 243 268 64 171 218 227 186 193 118 105 95 122 141 134 280 259 357 206 245 112 256 255
267 261 255 249 244 238 233 229 224 222 219 215 210 216 211 251 246 193 199 201 194 180 207 194 214 238 239 194 210 242 247 198 225 176 171 166 76 161 185 246 277 256 297 183 194 258 323
270 265 256 248 245 239 233 229 227 221 217 212 215 218 203 211 254 231 212 178 191 201 194 183 167 219 151 187 192 222 212 208 151 187 173 173 168 160 96 277 268 302 49 26 270 354 355
271 255 253 249 240 237 231 226 223 220 217 208 206 213 211 202 234 265 238 230 217 204 209 197 196 164 190 154 205 192 225 224 157 229 198 222 193 185 170 201 250 272 47 344 287 328 345
Height
1535 1533 1532 1530 1531 1529 1528 1527 1529 1530 1529 1527 1524 1524 1524 1519 1518 1517 1516 1516 1516 1514 1512 1511 1508 1506 1503 1503 1492 1495 1494 1494 1494 1494 1495 1498 1500 1501 1500 1496 1496 1496 1490 1487 1484 1481 1482
1532 1531 1530 1527 1528 1526 1525 1524 1524 1524 1524 1524 1521 1518 1521 1517 1514 1513 1512 1513 1513 1511 1510 1508 1505 1503 1502 1501 1487 1488 1488 1489 1491 1492 1493 1494 1496 1499 1498 1495 1495 1489 1489 1484 1478 1476 1479
1528 1527 1527 1525 1525 1523 1521 1521 1521 1522 1521 1520 1517 1515 1516 1514 1512 1510 1508 1508 1508 1508 1507 1505 1503 1500 1497 1485 1485 1486 1484 1485 1487 1488 1489 1490 1494 1498 1495 1494 1490 1489 1489 1480 1474 1474 1477
1526 1525 1521 1522 1521 1519 1517 1518 1518 1519 1518 1516 1514 1511 1511 1512 1509 1506 1505 1503 1503 1504 1503 1502 1500 1498 1487 1480 1477 1475 1480 1479 1482 1484 1486 1488 1492 1494 1494 1491 1489 1490 1489 1493 1473 1473 1474
1523 1522 1520 1515 1518 1516 1514 1514 1514 1515 1514 1514 1511 1508 1508 1508 1506 1503 1501 1498 1499 1499 1498 1498 1498 1496 1479 1473 1471 1471 1473 1473 1480 1481 1483 1486 1489 1490 1491 1493 1500 1494 1501 1493 1482 1466 1470
1515 1518 1518 1510 1511 1512 1510 1510 1511 1511 1510 1511 1509 1507 1506 1505 1503 1501 1497 1494 1494 1493 1493 1494 1494 1498 1475 1469 1469 1468 1468 1471 1476 1479 1481 1483 1485 1487 1491 1499 1509 1499 1496 1489 1489 1473 1469
1511 1511 1513 1505 1505 1507 1505 1506 1507 1507 1507 1507 1506 1505 1504 1504 1503 1500 1496 1493 1494 1491 1488 1483 1482 1475 1466 1467 1466 1466 1466 1468 1474 1476 1477 1478 1485 1484 1485 1488 1483 1486 1491 1491 1479 1469 1469
1504 1506 1504 1500 1501 1502 1501 1501 1503 1503 1503 1503 1503 1501 1502 1501 1500 1498 1498 1497 1498 1500 1485 1474 1473 1469 1462 1467 1469 1460 1464 1467 1468 1471 1473 1479 1475 1470 1476 1481 1485 1484 1487 1483 1475 1464 1466
1498 1498 1496 1495 1497 1496 1496 1497 1497 1497 1498 1499 1499 1498 1498 1498 1498 1497 1496 1496 1497 1494 1488 1460 1459 1457 1450 1458 1458 1457 1462 1461 1461 1467 1468 1470 1464 1464 1472 1475 1481 1478 1483 1479 1475 1464 1462
1491 1491 1490 1490 1490 1490 1491 1491 1491 1492 1493 1494 1495 1495 1496 1496 1498 1493 1493 1494 1495 1492 1491 1458 1446 1437 1438 1446 1447 1443 1451 1458 1458 1461 1465 1468 1460 1465 1470 1470 1473 1481 1466 1464 1466 1472 1484
1483 1483 1483 1484 1484 1484 1484 1485 1485 1486 1487 1490 1491 1491 1493 1494 1492 1490 1493 1492 1491 1491 1498 1439 1434 1430 1429 1436 1433 1430 1439 1449 1452 1451 1457 1457 1455 1460 1466 1462 1461 1467 1459 1460 1460 1466 1469
1475 1476 1476 1476 1476 1477 1478 1478 1479 1480 1482 1484 1486 1488 1489 1490 1488 1489 1490 1489 1491 1494 1477 1438 1425 1428 1432 1433 1430 1428 1432 1444 1447 1451 1450 1451 1450 1453 1454 1453 1455 1455 1455 1456 1464 1470 1484
1467 1467 1467 1468 1468 1469 1470 1471 1472 1473 1476 1478 1481 1484 1485 1485 1484 1489 1489 1489 1493 1484 1440 1431 1425 1423 1425 1430 1430 1428 1431 1439 1445 1456 1454 1452 1446 1447 1449 1454 1449 1451 1463 1487 1490 1491 1487
1458 1458 1459 1459 1460 1460 1462 1463 1465 1467 1470 1473 1476 1479 1480 1480 1484 1487 1488 1489 1481 1449 1443 1428 1427 1426 1427 1427 1429 1428 1433 1439 1438 1440 1447 1455 1460 1444 1438 1444 1449 1451 1457 1484 1487 1496 1483
1448 1449 1449 1450 1451 1451 1452 1454 1457 1460 1464 1468 1471 1473 1475 1476 1482 1486 1489 1477 1453 1447 1442 1438 1432 1434 1431 1426 1429 1428 1432 1433 1432 1434 1447 1449 1448 1430 1432 1435 1438 1446 1455 1446 1465 1468 1482
1438 1439 1439 1439 1440 1442 1444 1446 1449 1453 1457 1462 1464 1467 1467 1473 1479 1484 1483 1460 1452 1446 1444 1444 1446 1439 1440 1437 1437 1442 1436 1424 1428 1430 1434 1436 1449 1431 1428 1430 1428 1432 1434 1457 1463 1476 1480
1428 1428 1429 1429 1430 1432 1435 1438 1441 1445 1450 1455 1457 1459 1457 1467 1475 1478 1463 1452 1447 1448 1451 1452 1446 1446 1444 1443 1437 1440 1439 1430 1425 1426 1425 1432 1438 1436 1430 1427 1434 1435 1438 1436 1443 1459 1471
1417 1417 1417 1418 1420 1422 1425 1428 1432 1436 1442 1446 1447 1449 1452 1460 1467 1460 1446 1444 1449 1448 1451 1452 1449 1445 1449 1447 1445 1441 1436 1434 1429 1429 1430 1425 1432 1438 1427 1421 1418 1421 1426 1431 1452 1456 1455
1405 1404 1405 1406 1408 1410 1413 1417 1421 1426 1431 1437 1438 1442 1446 1450 1448 1440 1442 1447 1451 1452 1449 1449 1445 1442 1443 1448 1450 1438 1435 1429 1429 1430 1434 1436 1428 1437 1432 1422 1414 1420 1419 1417 1425 1436 1443
1390 1390 1391 1392 1395 1398 1401 1405 1409 1414 1420 1428 1430 1434 1437 1436 1428 1433 1442 1444 1443 1445 1448 1448 1444 1443 1443 1444 1445 1439 1435 1430 1426 1429 1430 1431 1428 1425 1421 1422 1416 1416 1415 1412 1419 1444 1439
1376 1375 1376 1378 1380 1384 1387 1392 1396 1402 1409 1417 1415 1415 1413 1412 1420 1430 1434 1430 1433 1437 1441 1441 1441 1444 1445 1442 1439 1437 1434 1433 1427 1428 1427 1435 1433 1418 1412 1407 1409 1408 1409 1411 1413 1417 1428
1360 1360 1361 1363 1365 1369 1373 1377 1383 1389 1397 1402 1403 1403 1407 1408 1415 1426 1426 1411 1422 1429 1435 1436 1437 1433 1437 1433 1440 1438 1436 1433 1430 1427 1428 1440 1436 1423 1408 1404 1401 1403 1407 1404 1402 1409 1411
1343 1344 1345 1348 1351 1354 1358 1363 1369 1375 1385 1385 1393 1393 1401 1400 1407 1414 1387 1405 1420 1431 1429 1430 1431 1433 1431 1436 1435 1433 1430 1429 1427 1427 1429 1436 1444 1441 1425 1404 1402 1411 1388 1399 1402 1401 1402
1328 1329 1331 1333 1336 1340 1345 1350 1355 1361 1367 1374 1379 1384 1392 1389 1394 1374 1397 1410 1413 1420 1424 1424 1426 1429 1430 1430 1428 1428 1427 1425 1424 1425 1425 1432 1440 1445 1438 1425 1420 1379 1383 1387 1394 1392 1392
1315 1317 1319 1322 1325 1329 1334 1339 1344 1352 1359 1364 1371 1376 1380 1380 1378 1387 1385 1396 1411 1414 1416 1418 1421 1426 1427 1427 1430 1429 1429 1424 1420 1420 1422 1423 1431 1440 1442 1428 1400 1386 1385 1387 1392 1389 1385
1305 1307 1309 1312 1315 1319 1324 1329 1336 1343 1350 1357 1362 1369 1375 1376 1364 1374 1385 1392 1398 1404 1415 1407 1418 1421 1425 1425 1428 1428 1429 1417 1417 1421 1423 1427 1426 1431 1442 1439 1424 1385 1380 1376 1379 1395 1377
1294 1295 1297 1300 1303 1308 1313 1319 1326 1333 1342 1349 1354 1361 1373 1374 1367 1372 1374 1379 1392 1397 1402 1404 1408 1415 1419 1424 1431 1425 1419 1407 1414 1418 1428 1430 1433 1431 1432 1430 1412 1385 1378 1372 1394 1389 1376
1282 1282 1284 1286 1290 1295 1300 1307 1315 1324 1332 1342 1348 1354 1361 1368 1366 1368 1373 1374 1382 1388 1393 1395 1406 1404 1408 1415 1419 1417 1419 1405 1406 1402 1408 1417 1425 1425 1423 1421 1416 1380 1373 1386 1391 1382 1379
1270 1271 1273 1275 1279 1283 1289 1296 1304 1312 1322 1334 1343 1348 1358 1363 1367 1367 1369 1373 1375 1379 1384 1389 1390 1391 1394 1402 1409 1405 1409 1409 1400 1405 1396 1409 1402 1409 1405 1406 1394 1378 1374 1381 1385 1382 1377